Regional Weather Roundup
Issued by NWS

Home | Current Version | Previous Version | Text Only | Print | Product List | Glossary Off
Versions: 1 2 3 4 5 6 7 8 9 10 11 12 13 14 15 16 17 18 19 20 21 22 23 24 25 26 27 28 29 30 31 32 33 34 35 36 37 38 39 40 41 42 43 44 45 46 47 48 49

000
ASUS45 KSLC 220710
RWRUT

UTAH REGIONAL WEATHER ROUNDUP
NATIONAL WEATHER SERVICE SALT LAKE CITY UT
100 AM MDT MON SEP 22 2014

UTZ001>011-023>025-220800-

NORTHERN UTAH

CITY           SKY/WX    TMP DP  RH WIND       PRES   REMARKS
HILL AFB       CLOUDY    61  54  77 E9        30.16S
LOGAN          CLOUDY    53  53 100 CALM      30.16R
OGDEN          CLOUDY    58  55  90 CALM      30.14S
PROVO AIRPORT  CLOUDY    61  55  82 SE12      30.19R
SALT LAKE CITY CLOUDY    61  59  93 CALM      30.14S
VERNAL         CLEAR     52  50  93 NW3       30.22F
WENDOVER       MOCLDY    57  52  82 CALM      30.15S
HEBER CITY     MOCLDY    50  50 100 CALM      30.22S
WEST JORDAN    MOCLDY    59  55  88 CALM      30.16S

$$

UTZ012>022-026-027-220800-

SOUTHERN UTAH

CITY           SKY/WX    TMP DP  RH WIND       PRES   REMARKS
BRYCE CANYON   PTCLDY    47  44  90 SW3       30.33S
CEDAR CITY     CLEAR     54  53  97 CALM      30.21S
MILFORD        PTCLDY    56  52  86 NW7       30.18S
MOAB/CYNLANDS  PTCLDY    63  58  83 SE3       30.15S
PRICE          MOCLDY    57  52  83 S3        30.23F
ST GEORGE      PTSUNNY   70  57  64 SE6       30.06S
KANAB            N/A     59  57  94 CALM      30.21R

$$

REGIONAL REPORTS     COLORADO/ARIZONA

CITY           SKY/WX    TMP DP  RH WIND       PRES   REMARKS
CRAIG, CO      PTCLDY    55  51  86 N6        30.27F
GRAND JUNCTION CLOUDY    61  57  87 VRB5      30.20R
RIFLE          CLOUDY    60  57  89 W5        30.26R
MONTROSE       LGT RAIN  60  57  89 E8        30.29F
CORTEZ         CLOUDY    61  59  93 VRB3      30.29S
PAGE, AZ       PTCLDY    71  56  58 CALM      30.12S
GRAND CANYON   CLEAR     46  42  86 E5        30.31R
KINGMAN        CLEAR     63  38  39 SE5       30.08R
FLAGSTAFF      CLEAR     51  46  83 CALM      30.33S

$$

REGIONAL REPORTS    NEVADA/IDAHO/WYOMING

CITY           SKY/WX    TMP DP  RH WIND       PRES   REMARKS
LAS VEGAS, NV  CLEAR     82  44  26 SW12      29.92S
ELY            CLOUDY    48  46  93 SE7       30.24F
ELKO           PTCLDY    54  45  71 N3        30.16R
POCATELLO, ID  PTCLDY    57  56  96 CALM      30.14F
BURLEY         FOG       53  52  96 CALM      30.10S VSB 1/4
EVANSTON, WY   PTCLDY    49  45  86 S3        30.28F
ROCK SPRINGS   PTCLDY    50  48  93 S7        30.27F

$$


USA.gov is the U.S. government's official web portal to all federal, state and local government web resources and services.